Location: Praha
(50.0830°N, 14.4670°E)
Time: 07:50:32
(UTC+02:00)

ATV-4 - Visible Passes

Search period start: 17 September 2024 00:00
Search period end: 27 September 2024 00:00
Orbit: 308 x 318 km, 51.6° (Epoch: 02 November)

Date Brightness Start Highest point End Pass type
(mag) Time Alt. Az. Time Alt. Az. Time Alt. Az.
17 Sep 6.4 03:00:22 10° WNW 04:24:45 65° SW 04:47:16 10° SSE visible
17 Sep 7.6 18:35:45 10° S 19:52:29 63° ESE 21:05:06 10° ENE visible
17 Sep 7.0 23:12:57 10° WSW 01:00:10 88° N 01:38:48 10° ESE visible
18 Sep 6.3 04:33:44 10° NW 05:39:50 48° WSW 05:59:30 10° S visible
18 Sep 7.5 19:50:53 10° SSW 21:17:33 77° SE 22:24:27 10° ENE visible
19 Sep 6.8 00:42:51 10° W 02:26:04 87° SSW 02:54:53 10° ESE visible
19 Sep 6.3 06:06:51 10° NW 06:52:57 31° W 07:10:28 10° SSW visible
19 Sep 7.3 21:10:08 10° SW 22:48:05 87° SSE 23:43:30 10° ENE visible
20 Sep 6.4 02:18:02 10° WNW 03:48:04 76° SW 04:10:35 10° SE visible
20 Sep 7.6 18:04:11 10° S 19:20:49 54° ESE 20:28:06 10° NE visible
20 Sep 7.1 22:34:24 10° WSW 00:20:35 88° N 01:02:20 10° E visible
21 Sep 6.2 03:55:17 10° WNW 05:07:01 59° WSW 05:25:49 10° SSE visible
21 Sep 7.5 19:19:14 10° SSW 20:44:57 68° ESE 21:49:40 10° ENE visible
22 Sep 6.9 00:05:01 10° W 01:50:27 88° NNE 02:20:56 10° ESE visible
22 Sep 6.2 05:31:35 10° NW 06:23:41 41° WSW 06:40:15 10° SSW visible
22 Sep 7.3 20:38:53 10° SSW 22:14:47 81° SE 23:10:51 10° ENE visible
23 Sep 6.4 01:42:22 10° W 03:16:22 84° SSW 03:39:16 10° SE visible
23 Sep 7.6 17:40:33 10° SSE 18:56:23 45° E 19:57:23 10° NE visible
23 Sep 7.1 22:03:38 10° SW 23:48:15 90° SSE 00:31:54 10° E visible
24 Sep 6.1 03:23:25 10° WNW 04:38:58 70° SW 04:57:14 10° SSE visible
24 Sep 7.5 18:55:01 10° S 20:20:18 60° ESE 21:21:15 10° ENE visible
24 Sep 6.9 23:34:54 10° WSW 01:20:58 87° N 01:52:50 10° E visible
25 Sep 6.0 05:03:26 10° NW 05:59:02 50° WSW 06:14:38 10° S visible
25 Sep 7.3 20:14:59 10° SSW 21:49:46 75° SE 22:44:32 10° ENE visible
26 Sep 6.5 01:13:53 10° W 02:50:16 89° SSW 03:13:37 10° ESE visible
26 Sep 7.6 17:25:03 10° SE 18:38:22 38° E 19:32:50 10° NE visible
